#timestamp,LO_Frequency,Hit,StdDev 
1697112015.7,286047000.4,N
1697112035.5,286047000.1,N
1697112055.4,286047000.5,N
1697112075.2,286047000.6,N
1697112095.0,286046999.7,N
1697112095.9,286046999.7,N
1697112115.8,286047011.9,Y
1697112135.6,286047002.5,P
1697112155.5,286046999.9,N
1697112175.3,286046999.7,N
1697112195.1,286047002.5,N
1697112215.9,286047001.8,N
1697112235.7,286047003.5,N
1697112255.5,286047005.6,Y
1697112275.4,286047004.1,P
1697112295.2,286047003.3,N
1697112315.1,286047005.5,P
1697112316.0,286047005.5,Y
1697112335.8,286047001.1,P
1697112355.6,286046998.6,N
1697112375.5,286046998.9,N
1697112395.3,286046998.8,N
1697112415.1,286046999.0,N
1697112435.9,286046998.8,N
1697112455.7,286046999.3,N
1697112475.6,286046998.7,N
1697112495.4,286046999.3,N
1697112515.2,286046998.3,N
1697112535.1,286046996.9,N
1697112536.0,286046996.9,N
1697112555.8,286046996.6,N
1697112575.6,286046996.5,N
1697112595.5,286046999.6,N
1697112615.3,286046996.6,N
1697112635.2,286046998.6,N
1697112655.9,286046998.6,N
1697112675.7,286046998.5,N
1697112695.6,286047001.2,N
1697112715.4,286046998.5,N
1697112735.3,286047000.7,N
1697112755.1,286047000.7,N
1697112756.0,286047000.7,N
1697112775.8,286047001.1,N
1697112795.7,286047001.1,N
1697112815.5,286047000.5,N
1697112835.3,286047000.7,N
1697112855.2,286047000.3,N
1697112875.0,286046999.8,N
1697112875.9,286046999.8,N
1697112895.8,286047000.0,N
1697112915.6,286047002.5,N
1697112935.4,286047002.4,N
1697112955.3,286047002.8,N
1697112975.1,286047002.1,N
1697112995.9,286047002.3,N
1697113015.7,286047003.7,N
1697113035.5,286047004.3,N
1697113055.4,286047004.2,N
1697113075.2,286047004.0,N
1697113095.0,286047004.4,N
1697113095.9,286047004.4,N
1697113115.8,286047001.3,N
1697113135.6,286047004.4,N
1697113155.5,286047004.2,N
1697113175.3,286047003.8,N
1697113195.1,286047003.8,N
1697113215.9,286047004.3,N
1697113235.7,286047003.3,N
1697113255.5,286047004.1,N
1697113275.4,286047003.8,N
1697113295.2,286047002.9,N
1697113315.1,286047004.6,N
1697113316.0,286047004.6,N
1697113335.8,286047006.5,Y
1697113355.6,286047003.7,P
1697113375.5,286047003.5,P
1697113395.3,286047003.5,P
1697113415.1,286047003.0,Y
1697113435.9,286046999.8,P
1697113455.7,286046999.9,N
1697113475.6,286047000.0,N
1697113495.4,286047000.1,N
1697113515.2,286046999.8,N
1697113535.1,286047000.1,N
1697113536.0,286047000.1,N
1697113555.8,286047000.7,N
1697113575.7,286047000.3,N
1697113595.5,286047000.9,N
1697113615.3,286047000.0,N
1697113635.2,286047000.3,N
1697113655.9,286047000.1,N
1697113675.7,286047000.1,N
1697113695.6,286047002.5,N
1697113715.4,286047001.6,N
1697113735.3,286047004.3,Y
1697113755.1,286047002.2,P
1697113756.0,286047002.2,N
1697113775.8,286047001.9,N
1697113795.7,286047004.3,Y
1697113815.5,286047002.7,P
1697113835.3,286047002.2,P
1697113855.2,286047002.7,P
1697113875.0,286047002.1,Y
1697113875.9,286047002.1,P
1697113895.8,286046998.4,P
1697113915.6,286047001.2,N
1697113935.4,286046998.6,N
1697113955.3,286046998.7,N
1697113975.1,286046998.4,N
1697113995.8,286046998.3,N
1697114015.7,286047000.0,N
1697114035.5,286046999.7,N
1697114055.4,286047000.9,N
1697114075.2,286047000.3,N
1697114095.0,286047000.0,N
1697114095.9,286047000.0,N
1697114115.8,286046999.8,N
1697114135.6,286047002.2,N
1697114155.5,286047001.7,N
1697114175.3,286047001.5,N
1697114195.1,286047003.9,N
1697114215.9,286047001.3,N
1697114235.7,286047003.1,N
1697114255.5,286047004.1,N
1697114275.4,286047004.3,N
1697114295.2,286047002.0,N
1697114315.1,286047002.4,N
1697114316.0,286047002.4,N
1697114335.8,286047002.6,N
1697114355.6,286047002.0,N
1697114375.5,286047001.9,N
1697114395.3,286047002.0,N
1697114415.1,286047001.8,N
1697114435.9,286047001.7,N
1697114455.7,286047004.0,N
1697114475.6,286047004.0,N
1697114495.4,286047003.5,N
1697114515.2,286047003.7,N
1697114535.1,286047003.1,N
1697114536.0,286047003.1,N
1697114555.8,286047001.3,N
1697114575.6,286047003.9,N
1697114595.5,286047002.5,N
1697114615.3,286047001.5,N
1697114635.2,286047002.0,N
1697114655.9,286047004.1,Y
1697114675.7,286047000.2,P
1697114695.6,286047000.9,N
1697114715.4,286046998.6,N
1697114735.2,286047001.0,N
1697114755.1,286047000.5,N
1697114756.0,286047000.5,N
1697114775.8,286047000.6,N
1697114795.7,286046999.8,N
1697114815.5,286047000.2,N
1697114835.3,286046999.8,N
1697114855.2,286046999.8,N
1697114875.0,286046999.7,N
1697114875.9,286046999.7,N
1697114895.8,286047002.5,N
1697114915.6,286047002.5,N
1697114935.4,286047001.4,N
1697114955.3,286047004.3,Y
1697114975.1,286047002.2,P
1697114995.9,286047002.4,N
1697115015.7,286047002.3,N
1697115035.5,286047000.1,N
1697115055.4,286047002.3,N
1697115075.2,286047002.1,N
1697115095.0,286047002.1,N
1697115095.9,286047002.1,N
1697115115.8,286047002.5,Y
1697115135.6,286047000.6,P
1697115155.5,286047002.7,P
1697115175.3,286047002.7,P
1697115195.1,286047002.1,N
1697115215.9,286047002.1,N
1697115235.7,286047002.1,N
1697115255.6,286047004.3,Y
1697115275.4,286046999.7,P
1697115295.2,286047000.2,N
1697115315.1,286047000.1,N
1697115316.0,286047000.1,N
1697115335.8,286046999.8,N
1697115355.6,286047002.5,Y
1697115375.5,286047002.7,P
1697115395.3,286046999.7,N
1697115415.2,286047002.3,N
1697115435.9,286047002.3,N
1697115455.7,286047001.4,N
1697115475.6,286047001.7,N
1697115495.4,286047001.8,N
1697115515.2,286047001.7,N
1697115535.1,286047002.5,N
1697115536.0,286047002.5,N
1697115555.8,286047002.1,N
1697115575.7,286047001.5,N
1697115595.5,286047003.5,Y
